SL-8 R/B

Satellite information

Favourite Embed

Satellite Type and Status

ROCKET BODYIN ORBIT

Key statistics

Satellite SL-8 R/B at a glance.

Uptime

18743

Days in orbit

Revolutions

≈ 13.8

Per day

Orbit

LEO

Low Earth Orbit

Inclination

83.0

Latest

Satellite identification and parameters

Extended collection of information and parameters for SL-8 R/B.

Object identification

Identified? True

Debris? False

Object name: SL-8 R/B

International designator: 1974-001B

Object number (NORAD): 7095

Object ID (CCSDS): 7095

Country: COMMONWEALTH OF INDEPENDENT STATES (CIS)

Current information (Y/N): Y

RCS size: LARGE

Orbital parameters

Period: 104.425 minutes

Inclination: 82.9513 deg

SMA: 7345.627 km

Apoapsis: 994.029 km

Periapsis: 940.955 km

RAAN: 47.3583 deg

Eccentricy: 0.0036126

Argument of periapsis: 310.6138 deg

Mean anomaly: 49.1879 deg

Mean motion: 13.78984644 rev/day

Mean motion (dot): 0.00000076 rev/day2

B* drag term: 0.000059153 1/REarth

Two-line elements (TLE)

Creation date: May 12, 2025, 2:31 a.m.

Reference frame: TEME

Reference center: EARTH

Epoch: May 11, 2025, 7:51 p.m. UTC

TLE line 0: 0 SL-8 R/B

TLE line 1: 1 07095U 74001B 25131.82766465 .00000076 00000-0 59153-4 0 9999

TLE line 2: 2 07095 82.9513 47.3583 0036126 310.6138 49.1879 13.78984644580208

Live tracking on map

Real-time ground track for satellite SL-8 R/B.

In-orbit conjunctions

A list of the most updated potential collisions computed for object SL-8 R/B.

Target Orbit TCA Probability of collision Miss distance Type
THORAD AGENA D DEB SSO 2025-03-08 21:12:06 0.0006119805 100.0 (m) DEBRIS
THORAD AGENA D DEB SSO 2024-09-29 17:50:02 0.001035255 181.0 (m) DEBRIS

Associated space launch

The first soviet navigation system called Tsiklon consisted of Zaliv satellites in low earth orbit.

SL-8 R/B was lifted into orbit during the mission ‘Kosmos-3M | Zaliv 16’, on board a Kosmos-3M space rocket.

The launch took place on Jan. 17, 1974, 10:07 a.m. from 132/2.

For more information about the launch, click the button.

Launch to space Kosmos-3M | Zaliv 16
Kosmos-3M | Zaliv 16

Agency: N/A

Status: Launch Successful

Launch date: Jan. 17, 1974, 10:07 a.m. UTC

Rocket: Kosmos-3M

Launch pad: 132/2

Location: Plesetsk Cosmodrome, Russian Federation

...

Latest news about this satellite

There are no fresh news available about this satellite. Check back as we update our databases every day.


Newsletter sign-up

Weekly statistics, charts and insights to help you stay on top of the space industry.